sat.trackr.live / text

‹ back to catalog

STARLINK-35573

NORAD 66116 · 2025-237C

PAYLOAD ACTIVE UNKNOWN

§ Identity

Operator
Country
US
Launch date
2025-10-22
Launch site
AFWTR
Launch vehicle
Mass (kg)
RCS (m²)

Purposes: comms

External: N2YO · Heavens-Above · Gunter

§ Orbital elements

Epoch: 2026-05-24T23:34:49.766016Z

Period
94.11 min
Inclination
53.1615°
Eccentricity
0.0001244
Mean motion
15.30201695 rev/d
Perigee alt
474.4 km
Apogee alt
476.1 km
Semi-major
6,853.3 km
B*
6.0405e-4
RAAN
45.0848°
Arg perigee
85.7632°
Mean anomaly
274.3511°
Rev number
3,429

§ Raw data

STARLINK-355731 66116U 25237C   26144.98252044  .00017574  00000+0  60405-3 0  99912 66116  53.1615  45.0848 0001244  85.7632 274.3511 15.30201695 34297

JSON: /api/v1/satellites/66116 · /tle

For live sub-satellite position, see the globe view (requires WebGL).

§ Visibility from observer

Set your observer location to see the next 7 days of passes ≥ 10°. The values pass through the URL so the page stays shareable.

No JS? Fill the form by hand. The geolocation button needs JavaScript.